Vertical_Velocity
1 0 0 -2 -7 -6 1 6 8 -3 1 -1 -3 -0 5 -4 -1 2 5 2 1 1 1 0 0 -0 -0 1 0 -1 -0 -1 -1 -0 0 -1 -1 -1 -1 -1 0 2 -0 -0 -1 -1 -1 -2 -0
-3 -1 -3 -2 -9 -5 12 5 7 2 1 -3 -1 -1 -1 3 -1 1 1 -1 1 1 -1 -1 -1 -1 -1 1 -0 -0 -0 -1 -1 -0 0 -1 -0 2 1 1 0 1 -1 0 -0 -1 -1 -1 -1
-0 -2 -2 -7 -8 -9 9 8 6 0 -0 1 -1 -0 -5 2 -1 1 2 0 -1 0 0 -1 -1 -1 -1 1 -0 -1 -1 -1 -0 -0 1 -0 1 7 2 2 1 3 -1 -1 0 2 1 -1 -0
1 -3 -6 -17 1 6 7 9 2 0 -4 -0 -1 -3 0 -0 -0 1 2 2 1 -3 1 -1 -0 -2 -0 1 0 -0 -1 -1 -0 -0 1 0 -0 0 1 1 1 -1 -1 1 1 0 -1 2 1
-1 0 -10 -6 4 10 1 9 1 3 -4 -0 -2 2 2 0 1 1 0 -0 0 -2 1 -0 -0 -0 -1 -1 0 -0 0 -0 -1 -2 1 0 -1 -0 -0 1 -0 -1 -2 -0 1 0 1 0 -1
-7 -1 -12 -5 6 3 7 4 4 4 -2 -3 -2 -0 1 2 1 -1 -1 -1 1 -1 0 0 -0 -0 -0 -0 0 -0 -1 0 -1 -1 0 -2 -1 1 -0 -0 3 5 7 3 -1 1 -4 0 3
-4 -5 4 1 5 2 16 7 5 3 2 -1 3 1 4 1 -1 -1 -0 1 -0 -1 -0 -0 0 1 -1 -0 -1 0 0 -1 -0 -0 0 -1 -0 1 0 0 1 -0 1 -0 2 2 9 5 -4
-4 -10 -7 -5 2 5 20 -9 15 -0 7 -6 0 -0 2 1 2 -1 -2 -1 1 -1 1 -0 -1 0 1 0 1 -0 1 -2 -1 -1 0 0 -0 0 1 -1 1 2 1 -1 1 2 -1 -7 2
2 -25 -12 14 -1 14 30 -0 5 7 -2 -8 -0 6 5 -2 -1 -2 -2 -2 1 1 -0 -1 -1 1 -1 1 0 -0 1 -2 -2 2 -0 -1 -1 -1 -2 -1 -0 0 1 -1 -0 2 -4 -0 -11
-21 -9 25 8 6 12 21 -6 7 -11 7 -2 2 6 1 -4 -1 -0 1 3 -0 -1 0 0 -2 -1 -0 0 -0 -1 -0 -0 1 2 -1 -1 -1 -3 -2 -1 -0 -0 -1 -0 1 1 -1 -0 -1
-3 -35 7 10 6 6 19 -6 -0 -2 -14 1 5 7 4 -0 1 1 -0 2 4 -1 1 2 2 1 1 1 0 1 1 1 0 1 -1 0 -0 -3 -2 -2 -0 -0 -2 0 0 -0 0 1 -0
-34 12 2 6 6 2 21 1 -5 -8 17 4 4 5 -1 0 1 2 4 3 2 -1 -1 -1 -1 0 0 1 1 0 1 1 0 1 -1 0 -0 -1 -2 -1 -0 -0 -2 0 1 2 0 2 1
-41 20 4 5 6 2 9 -6 5 -9 6 1 -4 -3 3 1 4 2 2 1 -1 -0 1 -0 -1 -1 -0 0 1 2 0 1 1 0 0 1 0 0 -1 -2 -0 1 1 0 1 2 1 1 -2
29 9 6 1 4 5 3 0 -12 5 3 1 -2 0 5 3 2 -2 -3 0 -1 -0 0 0 0 -1 1 -1 -0 1 1 -0 -0 1 0 0 0 1 -0 -1 -1 1 1 -0 -1 0 1 1 1
2 -9 7 -3 5 -4 15 -17 -52 7 8 2 -0 -0 2 5 -2 1 7 6 -2 4 4 3 2 2 -1 -1 0 1 -1 -0 0 -0 0 0 1 0 1 1 -0 0 -1 -0 -0 -1 -1 -2 -2
-8 22 -6 14 8 17 -2 -22 47 9 0 4 2 -2 -1 3 7 4 1 3 2 -0 -0 -1 1 3 2 2 -1 -1 -1 4 1 0 1 1 1 0 -1 -0 -0 -1 -1 -0 0 -0 -0 0 -2
18 -14 -7 8 6 21 -35 54 -11 -0 2 4 0 1 0 -0 3 -1 -0 0 -1 0 1 0 3 3 1 3 -0 -0 0 2 0 -2 0 -0 0 1 0 -1 -1 -0 0 -1 -1 -1 1 2 1
5 0 5 7 10 -17 -27 26 13 8 3 11 3 0 -2 -0 1 7 2 1 -1 -1 -0 -1 0 5 -2 -2 1 -0 0 -2 0 -1 -1 -1 0 0 0 0 -0 -1 0 0 1 0 -1 -0 -1
12 5 -3 22 9 -10 -11 43 1 14 -0 -6 4 1 -0 1 5 2 0 1 -3 1 -0 1 2 -0 -2 0 -1 -3 -0 2 2 -1 0 2 0 0 0 -1 -1 0 1 0 -0 0 0 0 -1
22 10 2 -2 -2 -18 30 -9 22 -5 8 9 12 -2 1 -2 -5 -1 -1 1 2 5 4 -0 2 -1 3 7 -1 1 1 2 0 0 1 1 1 1 0 -0 -0 -0 1 -1 -1 0 -0 -1 -0
-9 15 12 6 -0 3 13 11 -11 -6 -0 2 -5 8 -1 -2 2 -3 -0 2 3 4 6 2 1 -1 3 8 4 3 -2 -4 -3 2 -2 0 -1 1 0 1 0 1 1 -0 -0 0 -0 -1 -0
-5 -4 -0 11 5 7 7 -13 -12 -5 10 5 7 -8 2 0 0 -3 5 0 5 5 1 1 0 2 8 12 16 3 7 4 5 3 1 0 -0 -1 0 1 -1 -1 -0 0 0 -1 -1 -0 -0
5 -4 10 8 15 34 12 13 -5 19 2 -12 0 1 6 7 2 2 0 4 6 3 4 3 -0 4 5 8 9 9 11 10 3 2 3 -3 -1 -6 -1 -0 -2 -1 -0 0 -1 -2 -1 -1 -2
-15 -10 -2 5 2 -10 18 17 7 -10 -10 23 11 -2 6 4 3 3 -2 0 -1 2 2 3 3 3 5 2 3 4 6 5 1 -2 6 4 2 4 -1 1 -1 1 -1 -1 0 -1 0 -1 -1
-5 -6 1 11 11 -13 6 -4 -4 5 -2 -6 7 7 6 7 -7 1 -1 1 5 2 2 2 1 2 0 3 2 4 2 7 1 -1 2 0 3 -2 2 -2 7 -1 -1 -2 1 -0 -2 -2 -1
7 -4 4 -0 2 -17 21 8 20 -3 2 4 4 11 8 -1 4 7 3 5 3 2 2 -1 1 2 2 -1 4 1 4 -2 2 -8 -1 4 7 -6 21 0 6 -0 1 -0 1 -0 -0 -1 -2
-2 -1 1 -4 -1 3 13 4 1 2 13 4 4 2 2 -2 -0 4 2 2 3 -1 5 7 1 -0 -0 3 0 3 -0 -1 62 -11 -2 35 91 5 5 17 1 -4 2 -1 -1 -0 -1 -1 -0
-4 3 -1 1 2 -2 -9 -4 -19 -3 5 5 5 -3 18 2 4 3 4 3 5 4 2 1 -1 -1 -0 4 -0 -2 4 1 3 17 2 23 20 0 -3 8 5 4 9 3 1 3 -1 1 1
-2 -1 -4 -1 2 4 -5 -16 -6 -4 -2 -1 1 -6 -4 11 4 6 3 -0 1 2 3 3 -0 -2 0 0 4 3 4 -3 -1 4 1 19 17 7 5 7 11 9 8 2 2 -2 -0 -1 1
15 10 4 9 13 -3 -4 -1 -10 5 -0 5 7 9 1 1 1 25 21 1 -6 1 2 1 -0 0 2 1 -1 2 2 0 11 -4 5 12 -3 -2 -3 -3 0 11 -0 9 11 3 -0 -1 -3
Height
5759 5760 5761 5763 5764 5759 5773 5783 5786 5787 5788 5788 5788 5790 5795 5796 5800 5808 5809 5810 5813 5816 5818 5820 5823 5825 5828 5831 5834 5837 5841 5843 5847 5849 5852 5855 5858 5861 5865 5867 5869 5871 5874 5875 5877 5880 5883 5885 5887
5751 5752 5753 5753 5751 5752 5773 5780 5784 5783 5783 5782 5784 5786 5790 5794 5799 5802 5804 5806 5810 5814 5816 5818 5821 5823 5826 5829 5833 5835 5839 5841 5845 5847 5850 5852 5856 5859 5861 5865 5867 5870 5872 5874 5876 5878 5880 5883 5886
5742 5744 5746 5742 5742 5745 5773 5778 5778 5775 5775 5778 5781 5784 5784 5792 5796 5799 5802 5804 5806 5810 5814 5817 5819 5821 5823 5827 5830 5834 5837 5839 5843 5844 5847 5850 5854 5857 5860 5862 5865 5867 5870 5872 5874 5876 5878 5880 5883
5734 5735 5736 5732 5735 5747 5767 5771 5771 5768 5768 5772 5777 5780 5784 5788 5792 5796 5797 5799 5803 5807 5811 5814 5817 5819 5820 5824 5827 5831 5834 5837 5840 5842 5845 5848 5852 5855 5857 5860 5862 5865 5868 5870 5872 5873 5876 5878 5881
5723 5724 5724 5723 5731 5744 5759 5762 5763 5762 5763 5769 5773 5778 5782 5784 5788 5790 5793 5797 5801 5804 5807 5810 5814 5817 5819 5822 5825 5828 5831 5834 5837 5839 5842 5846 5850 5853 5856 5858 5860 5863 5865 5866 5868 5870 5872 5875 5877
5710 5712 5712 5715 5731 5737 5748 5754 5755 5757 5758 5762 5767 5774 5778 5780 5782 5786 5790 5795 5797 5799 5802 5806 5809 5813 5816 5819 5823 5826 5829 5831 5834 5837 5840 5844 5847 5850 5853 5856 5858 5860 5862 5863 5865 5868 5867 5870 5873
5700 5704 5706 5712 5720 5726 5740 5746 5748 5754 5752 5758 5764 5767 5771 5775 5780 5784 5787 5790 5793 5796 5799 5803 5806 5810 5814 5817 5820 5824 5827 5830 5833 5836 5839 5842 5845 5848 5850 5853 5855 5857 5860 5862 5864 5865 5866 5868 5869
5689 5691 5693 5699 5709 5718 5730 5736 5740 5744 5749 5750 5753 5757 5766 5772 5775 5778 5782 5786 5789 5792 5796 5799 5803 5807 5811 5815 5818 5821 5824 5828 5831 5835 5838 5841 5843 5845 5848 5850 5853 5855 5858 5860 5862 5863 5864 5863 5867
5675 5675 5679 5692 5700 5710 5724 5726 5732 5735 5737 5739 5744 5752 5760 5763 5767 5771 5775 5780 5784 5788 5792 5796 5799 5804 5808 5812 5816 5819 5822 5825 5830 5834 5837 5839 5841 5844 5846 5849 5851 5853 5855 5857 5859 5861 5862 5861 5863
5659 5663 5675 5684 5687 5697 5714 5716 5722 5725 5727 5729 5734 5742 5751 5757 5762 5766 5771 5776 5781 5785 5790 5794 5798 5802 5806 5809 5813 5817 5821 5825 5829 5833 5836 5838 5840 5843 5846 5848 5850 5851 5854 5855 5857 5858 5860 5862 5861
5645 5652 5664 5669 5678 5685 5698 5703 5709 5712 5716 5721 5729 5738 5744 5748 5753 5759 5765 5773 5777 5781 5785 5790 5794 5798 5803 5807 5810 5816 5820 5823 5827 5831 5834 5836 5838 5842 5845 5847 5849 5850 5852 5853 5855 5857 5858 5860 5862
5628 5644 5648 5654 5662 5671 5684 5692 5698 5702 5710 5716 5721 5726 5733 5740 5747 5753 5758 5764 5769 5775 5780 5785 5790 5794 5800 5804 5808 5812 5816 5820 5825 5828 5831 5834 5837 5840 5843 5845 5848 5850 5852 5853 5854 5857 5859 5860 5862
5612 5628 5629 5636 5646 5658 5667 5679 5686 5692 5698 5703 5708 5712 5721 5729 5738 5745 5752 5757 5763 5768 5774 5779 5785 5790 5795 5799 5805 5807 5811 5817 5820 5825 5828 5831 5834 5838 5841 5844 5847 5850 5851 5853 5854 5855 5858 5860 5861
5602 5604 5611 5619 5627 5639 5651 5666 5673 5682 5685 5688 5697 5703 5711 5721 5729 5737 5742 5748 5755 5761 5767 5773 5780 5785 5790 5795 5800 5803 5808 5813 5817 5822 5825 5828 5832 5836 5839 5843 5846 5848 5850 5852 5853 5854 5856 5858 5860
5574 5579 5589 5598 5611 5621 5632 5648 5664 5666 5671 5676 5685 5693 5701 5712 5720 5728 5737 5743 5749 5756 5762 5768 5773 5779 5785 5790 5795 5799 5803 5808 5813 5817 5821 5825 5828 5833 5836 5840 5843 5845 5847 5850 5852 5854 5856 5857 5858
5546 5557 5562 5586 5598 5604 5613 5641 5651 5655 5660 5666 5674 5683 5691 5702 5712 5721 5728 5736 5741 5747 5756 5763 5769 5774 5779 5785 5789 5795 5800 5804 5808 5812 5817 5821 5825 5829 5832 5836 5838 5841 5844 5847 5850 5852 5853 5855 5856
5525 5533 5549 5570 5578 5586 5595 5630 5634 5641 5648 5656 5663 5672 5681 5691 5702 5710 5719 5727 5732 5740 5748 5756 5763 5769 5774 5779 5784 5790 5794 5799 5804 5808 5812 5816 5820 5824 5828 5831 5834 5837 5840 5843 5846 5848 5850 5852 5854
5509 5516 5532 5549 5559 5566 5583 5605 5618 5627 5635 5645 5652 5662 5670 5680 5691 5701 5711 5719 5725 5731 5741 5750 5756 5762 5768 5773 5779 5783 5788 5793 5799 5803 5808 5812 5816 5820 5824 5827 5830 5833 5835 5838 5841 5844 5846 5849 5851
5498 5509 5518 5536 5543 5554 5572 5585 5603 5615 5624 5634 5642 5649 5659 5671 5682 5691 5701 5710 5717 5724 5732 5741 5749 5755 5761 5767 5772 5777 5783 5790 5795 5799 5803 5807 5811 5815 5819 5822 5825 5828 5831 5833 5836 5839 5842 5844 5846
5485 5500 5507 5516 5527 5539 5554 5566 5583 5597 5613 5623 5631 5638 5649 5659 5670 5679 5688 5699 5708 5718 5726 5733 5742 5749 5755 5761 5766 5771 5778 5784 5789 5793 5797 5801 5806 5810 5813 5817 5820 5823 5826 5828 5831 5833 5836 5839 5841
5472 5485 5498 5510 5519 5526 5537 5545 5561 5582 5593 5606 5618 5628 5638 5650 5661 5670 5679 5690 5699 5708 5717 5726 5735 5742 5748 5753 5759 5764 5769 5774 5779 5786 5792 5797 5801 5805 5809 5811 5814 5817 5820 5823 5826 5828 5830 5833 5836
5464 5479 5488 5498 5511 5518 5523 5532 5546 5566 5580 5591 5604 5614 5626 5637 5648 5659 5671 5682 5691 5699 5707 5717 5724 5732 5740 5747 5751 5757 5765 5771 5776 5781 5786 5790 5794 5797 5802 5805 5807 5810 5812 5817 5819 5822 5824 5827 5829
5459 5467 5476 5491 5499 5508 5517 5524 5539 5551 5561 5579 5595 5606 5615 5626 5636 5647 5659 5671 5682 5691 5698 5706 5714 5722 5730 5737 5744 5749 5755 5761 5767 5771 5776 5782 5786 5789 5794 5797 5800 5803 5806 5809 5811 5815 5817 5820 5822
5452 5464 5472 5483 5493 5497 5513 5520 5525 5537 5555 5571 5583 5595 5604 5613 5624 5635 5650 5662 5671 5679 5686 5694 5703 5711 5719 5727 5734 5741 5749 5754 5759 5764 5768 5773 5778 5782 5785 5790 5793 5796 5798 5801 5803 5807 5810 5813 5815
5454 5462 5470 5478 5482 5490 5507 5516 5521 5527 5542 5558 5573 5585 5593 5603 5612 5624 5638 5651 5660 5669 5678 5684 5692 5700 5707 5716 5723 5731 5739 5744 5750 5755 5760 5765 5769 5773 5776 5779 5783 5786 5788 5791 5796 5799 5801 5804 5807
5453 5459 5465 5471 5478 5491 5503 5508 5514 5524 5532 5547 5560 5573 5581 5591 5603 5614 5627 5641 5650 5659 5668 5676 5682 5689 5697 5705 5713 5720 5728 5736 5741 5750 5753 5754 5759 5764 5764 5770 5773 5777 5780 5784 5787 5790 5793 5795 5797
5451 5457 5465 5471 5477 5487 5489 5500 5510 5521 5529 5537 5550 5562 5572 5583 5594 5605 5616 5629 5638 5646 5657 5666 5673 5679 5687 5694 5703 5710 5717 5726 5733 5739 5745 5739 5747 5754 5758 5761 5765 5768 5771 5774 5776 5780 5783 5786 5788
5452 5460 5466 5470 5476 5478 5484 5496 5506 5518 5527 5535 5543 5556 5568 5576 5585 5595 5607 5618 5627 5636 5646 5654 5661 5669 5677 5684 5691 5698 5707 5714 5719 5724 5731 5735 5740 5744 5748 5752 5756 5758 5762 5764 5767 5770 5773 5777 5779
5454 5459 5466 5473 5475 5477 5483 5494 5505 5512 5522 5531 5540 5549 5559 5568 5578 5588 5598 5607 5616 5626 5635 5643 5651 5659 5667 5675 5681 5689 5696 5702 5708 5714 5721 5727 5727 5734 5738 5742 5747 5748 5751 5755 5758 5759 5763 5767 5769
5456 5460 5465 5472 5470 5472 5479 5490 5500 5508 5515 5524 5534 5542 5551 5561 5571 5583 5591 5597 5606 5615 5625 5633 5640 5649 5656 5664 5670 5677 5684 5692 5697 5704 5709 5712 5716 5723 5726 5731 5735 5739 5742 5745 5747 5749 5751 5754 5757